Location: Unspecified
(0.0000°N, 0.0000°E)
Time: 12:09:26
(UTC+00:00)

Tiros 2 - All Passes

Search period start: 21 April 2014 00:00
Search period end: 01 May 2014 00:00
Orbit: 288 x 292 km, 48.5° (Epoch: 21 April)

Date Brightness Start Highest point End Pass type
(mag) Time Alt. Az. Time Alt. Az. Time Alt. Az.
21 Apr - 03:27:51 10° W 03:29:15 14° SW 03:30:40 10° SSW night (unlit)
21 Apr - 14:42:16 10° SW 14:44:45 52° NW 14:47:11 10° NNE daylight
22 Apr - 01:57:44 10° NNW 01:59:59 29° NE 02:02:14 10° ESE night (unlit)
22 Apr - 14:47:40 10° W 14:49:06 14° NW 14:50:33 10° NNW daylight
23 Apr - 02:01:34 10° NW 02:04:01 57° SW 02:06:29 10° SSE night (unlit)
23 Apr - 13:16:43 10° S 13:18:53 27° SE 13:21:03 10° ENE daylight
24 Apr - 02:05:44 10° W 02:07:22 16° SW 02:09:01 10° S night (unlit)
24 Apr - 13:19:29 10° SW 13:21:55 66° NW 13:24:19 10° NNE daylight
25 Apr - 00:34:06 10° N 00:36:11 24° NE 00:38:17 10° ESE night (unlit)
25 Apr - 13:22:32 10° W 13:24:14 17° NW 13:25:56 10° N daylight
26 Apr - 00:35:42 10° NW 00:38:10 85° SW 00:40:40 10° SE night (unlit)
26 Apr - 11:50:19 10° S 11:52:07 18° SE 11:53:54 10° E daylight
27 Apr - 00:37:26 10° WNW 00:39:29 22° SW 00:41:32 10° S night (unlit)
27 Apr - 11:50:45 10° SSW 11:53:06 69° SE 11:55:26 10° NE daylight
27 Apr - 23:04:48 10° N 23:06:23 15° NE 23:07:58 10° E night (unlit)
28 Apr - 11:51:19 10° WSW 11:53:23 27° NW 11:55:26 10° N daylight
28 Apr - 23:03:57 10° NNW 23:06:20 46° NE 23:08:45 10° SE night (unlit)
29 Apr - 10:18:49 10° SE 10:19:21 11° SE 10:19:52 10° ESE daylight
29 Apr - 23:03:14 10° NW 23:05:35 43° SW 23:07:59 10° SSE night (unlit)
30 Apr - 10:16:15 10° SSW 10:18:19 28° SE 10:20:22 10° ENE daylight
30 Apr - 23:02:37 10° W 23:04:10 15° SW 23:05:45 10° S night (unlit)
